Change the Weather History Date:

Sunday, December 29, 2013

  Actual Average Record
Temperature  
Mean Temperature 37 °F 29 °F  
Max Temperature 42 °F 37 °F 72 °F (1984)
Min Temperature 31 °F 21 °F -1 °F (1933)
Degree Days  
Heating Degree Days 28 36  
Month to date heating degree days 953 942  
Since 1 July heating degree days 2112 2122  
Cooling Degree Days 0 0  
Month to date cooling degree days 0 0  
Year to date cooling degree days 927 757  
Moisture  
Dew Point 34 °F    
Average Humidity 88    
Maximum Humidity 100    
Minimum Humidity 75    
Precipitation  
Precipitation 0.84 in 0.10 in 1.19 in (1948)
Month to date precipitation 4.03 3.40  
Year to date precipitation 45.94 45.17  
Snow  
Snow 0.00 in 0.20 in 4.00 in (1962)
Month to date snowfall 13.5 4.7  
Since 1 July snowfall 13.5 5.4  
Snow Depth 0.00 in    
Sea Level Pressure  
Sea Level Pressure 29.78 in    
Wind  
Wind Speed 5 mph (NNE)    
Max Wind Speed 23 mph    
Max Gust Speed 26 mph    
Visibility 7 miles    
Events Rain    
T = Trace of Precipitation, MM = Missing Value Source: NWS Daily Summary

Daily Weather History Graph

Daily Weather History Graph

Search for Another Location

Airport or City:

Trip Planner

Search our weather history database for the weather conditions in past years. The results will help you decide how hot, cold, wet, or windy it might be!

Date:

Astronomy

Dec. 29, 2013 Rise Set
Actual Time 7:25 AM EST 4:42 PM EST
Civil Twilight 6:54 AM EST 5:13 PM EST
Nautical Twilight 6:19 AM EST 5:48 PM EST
Astronomical Twilight 5:46 AM EST 6:21 PM EST
Moon 4:05 AM EST (12/29) 2:19 PM EST (12/29)
Length of Visible Light 10h 19m
Length of Day
9h 17m
Waning Crescent, 11% of the Moon is Illuminated
Dec 29
Waning Crescent
Jan 1
New
Jan 7
First Quarter
Jan 15
Full
Jan 24
Last Quarter

Hourly Weather History & Observations

Time (EST) Temp. Windchill Dew Point Humidity Pressure Visibility Wind Dir Wind Speed Gust Speed Precip Events Conditions
12:51 AM 32.0 °F - 27.0 °F 82% 30.07 in 9.0 mi Calm Calm - N/A   Clear
1:51 AM 34.0 °F - 27.0 °F 75% 30.08 in 10.0 mi Calm Calm - N/A   Clear
2:51 AM 34.0 °F - 27.0 °F 75% 30.05 in 10.0 mi Calm Calm - N/A   Clear
3:51 AM 33.1 °F - 28.0 °F 82% 30.05 in 10.0 mi Calm Calm - N/A   Clear
4:51 AM 33.1 °F - 28.0 °F 82% 30.01 in 10.0 mi Calm Calm - N/A   Clear
5:51 AM 33.1 °F - 28.0 °F 82% 30.00 in 10.0 mi Calm Calm - N/A   Partly Cloudy
6:51 AM 33.1 °F - 28.9 °F 85% 30.00 in 10.0 mi Calm Calm - N/A   Overcast
7:51 AM 35.1 °F - 28.9 °F 78% 30.01 in 10.0 mi Calm Calm - N/A   Overcast
8:51 AM 37.0 °F - 30.9 °F 79% 29.99 in 9.0 mi Calm Calm - N/A   Overcast
9:51 AM 37.9 °F 34.4 °F 32.0 °F 79% 29.96 in 7.0 mi NE 4.6 mph - 0.00 in Rain Light Rain
10:51 AM 37.0 °F 33.3 °F 33.1 °F 86% 29.92 in 4.0 mi NE 4.6 mph - 0.04 in Rain Light Rain
11:51 AM 37.0 °F 30.4 °F 34.0 °F 89% 29.83 in 3.0 mi ENE 9.2 mph - 0.10 in Rain Rain
12:00 PM 37.4 °F 30.8 °F 33.8 °F 87% 29.79 in 2.5 mi ENE 9.2 mph - 0.02 in Rain Rain
12:13 PM 37.4 °F 31.4 °F 35.6 °F 93% 29.78 in 2.0 mi ENE 8.1 mph - 0.05 in Rain Rain
12:51 PM 37.0 °F 28.5 °F 35.1 °F 93% 29.72 in 2.0 mi ENE 13.8 mph - 0.16 in Rain Rain
1:08 PM 37.4 °F 28.5 °F 35.6 °F 93% 29.66 in 2.0 mi East 15.0 mph - 0.06 in Rain Heavy Rain
1:36 PM 37.4 °F 28.9 °F 35.6 °F 93% 29.63 in 2.0 mi ENE 13.8 mph - 0.13 in Rain Rain
1:47 PM 37.4 °F 29.8 °F 35.6 °F 93% 29.62 in 1.8 mi ENE 11.5 mph - 0.17 in Rain Heavy Rain
1:48 PM 37.9 °F 30.0 °F 35.1 °F 89% 29.63 in 1.8 mi ENE 12.7 mph - 0.17 in Rain Heavy Rain
2:43 PM 37.4 °F 30.8 °F 35.6 °F 93% 29.56 in 1.0 mi ENE 9.2 mph - 0.21 in Rain Rain
2:51 PM 37.9 °F 34.4 °F 37.0 °F 97% 29.57 in 1.0 mi NE 4.6 mph - 0.23 in Rain Rain
3:37 PM 39.2 °F 33.0 °F 37.4 °F 93% 29.52 in 2.0 mi NE 9.2 mph - 0.08 in Rain Light Rain
3:51 PM 39.0 °F 34.0 °F 37.0 °F 93% 29.53 in 2.0 mi NE 6.9 mph - 0.09 in Rain Rain
4:51 PM 42.1 °F 38.4 °F 39.9 °F 92% 29.52 in 8.0 mi North 5.8 mph - 0.05 in Rain Light Rain
5:51 PM 39.9 °F 35.8 °F 37.0 °F 89% 29.53 in 9.0 mi NNW 5.8 mph - 0.00 in   Overcast
6:51 PM 41.0 °F 35.8 °F 37.0 °F 86% 29.60 in 10.0 mi WNW 8.1 mph - N/A   Overcast
7:20 PM 41.0 °F 35.8 °F 37.4 °F 87% 29.61 in 10.0 mi WNW 8.1 mph - N/A   Overcast
7:51 PM 41.0 °F 36.4 °F 37.0 °F 86% 29.64 in 10.0 mi WNW 6.9 mph - 0.00 in   Overcast
8:51 PM 39.9 °F 35.1 °F 36.0 °F 86% 29.66 in 10.0 mi West 6.9 mph - N/A   Scattered Clouds
9:51 PM 37.0 °F 34.5 °F 34.0 °F 89% 29.71 in 10.0 mi WSW 3.5 mph - N/A   Partly Cloudy
10:51 PM 37.9 °F 32.7 °F 34.0 °F 86% 29.73 in 10.0 mi SW 6.9 mph - N/A   Partly Cloudy
11:14 PM 37.4 °F 32.1 °F 35.6 °F 93% 29.73 in 10.0 mi SW 6.9 mph - N/A   Mostly Cloudy
11:51 PM 39.0 °F 33.4 °F 36.0 °F 89% 29.75 in 10.0 mi SW 8.1 mph - N/A   Overcast
11:59 PM 39.2 °F 35.0 °F 35.6 °F 87% 29.75 in 10.0 mi WSW 5.8 mph - N/A   Overcast